| time (UTC) | temp F | wind direction | speed MPH | gust MPH | rain 1hr in | rain 24hr in | rain mn in | humidity % | barometer mb |
| 20260505230149 | 77 | 220 | 4.0 | 14.0 | 0.00 | 0.01 | 0.01 | 40 | 1005.9 |
| 20260505225652 | 78 | 236 | 6.0 | 19.0 | 0.00 | 0.01 | 0.01 | 40 | 1005.7 |
| 20260505225149 | 78 | 162 | 6.0 | 19.0 | 0.00 | 0.01 | 0.01 | 41 | 1005.9 |
| 20260505224646 | 78 | 250 | 6.0 | 12.0 | 0.00 | 0.01 | 0.01 | 40 | 1005.9 |
| 20260505224146 | 78 | 254 | 5.0 | 10.0 | 0.00 | 0.01 | 0.01 | 40 | 1005.9 |
| 20260505223647 | 78 | 207 | 4.0 | 12.0 | 0.00 | 0.01 | 0.01 | 40 | 1005.9 |
| 20260505223148 | 78 | 275 | 7.0 | 23.0 | 0.00 | 0.01 | 0.01 | 40 | 1006.0 |
| 20260505222915 | 78 | 142 | 9.0 | 23.0 | 0.00 | 0.01 | 0.01 | 39 | 1006.0 |
| 20260505222147 | 78 | 248 | 8.0 | 17.0 | 0.00 | 0.01 | 0.01 | 40 | 1006.0 |
| 20260505221647 | 78 | 261 | 7.0 | 18.0 | 0.00 | 0.01 | 0.01 | 39 | 1006.0 |
| 20260505221146 | 78 | 169 | 9.0 | 18.0 | 0.00 | 0.01 | 0.01 | 40 | 1006.0 |
| 20260505220645 | 78 | 178 | 9.0 | 18.0 | 0.00 | 0.01 | 0.01 | 39 | 1006.1 |
| 20260505220146 | 79 | 235 | 8.0 | 18.0 | 0.00 | 0.01 | 0.01 | 39 | 1006.1 |
| 20260505215919 | 79 | 215 | 9.0 | 17.0 | 0.00 | 0.01 | 0.01 | 38 | 1006.0 |
| 20260505215147 | 79 | 241 | 9.0 | 17.0 | 0.00 | 0.01 | 0.01 | 39 | 1006.0 |
| 20260505214645 | 80 | 253 | 11.0 | 17.0 | 0.00 | 0.01 | 0.01 | 38 | 1006.0 |
| 20260505214408 | 80 | 173 | 6.0 | 16.0 | 0.00 | 0.01 | 0.01 | 39 | 1005.9 |
| 20260505213647 | 80 | 252 | 10.0 | 16.0 | 0.00 | 0.01 | 0.01 | 38 | 1005.8 |
| 20260505213146 | 80 | 240 | 6.0 | 15.0 | 0.00 | 0.01 | 0.01 | 40 | 1005.7 |
| 20260505212911 | 80 | 265 | 9.0 | 14.0 | 0.00 | 0.01 | 0.01 | 39 | 1005.7 |
| 20260505212146 | 80 | 235 | 6.0 | 14.0 | 0.00 | 0.01 | 0.01 | 40 | 1005.7 |
| 20260505211919 | 79 | 196 | 6.0 | 14.0 | 0.00 | 0.01 | 0.01 | 40 | 1005.7 |
| 20260505211411 | 79 | 179 | 6.0 | 18.0 | 0.00 | 0.01 | 0.01 | 39 | 1005.7 |
| 20260505210643 | 80 | 244 | 9.0 | 19.0 | 0.00 | 0.01 | 0.01 | 39 | 1005.8 |
| 20260505210143 | 80 | 212 | 9.0 | 26.0 | 0.00 | 0.01 | 0.01 | 39 | 1005.8 |
| 20260505205911 | 79 | 286 | 8.0 | 26.0 | 0.00 | 0.01 | 0.01 | 40 | 1005.7 |
| 20260505205230 | 79 | 210 | 6.0 | 18.0 | 0.00 | 0.01 | 0.01 | 40 | 1005.7 |
| 20260505205221 | 79 | 215 | 8.0 | 23.0 | 0.00 | 0.01 | 0.01 | 40 | 1005.8 |
| 20260505205149 | 79 | 244 | 9.0 | 18.0 | 0.00 | 0.01 | 0.01 | 41 | 1005.7 |
| 20260505203636 | 80 | 220 | 11.0 | 25.0 | 0.00 | 0.01 | 0.01 | 40 | 1005.7 |
| 20260505203137 | 80 | 216 | 11.0 | 25.0 | 0.00 | 0.01 | 0.01 | 39 | 1005.9 |
| 20260505202636 | 80 | 279 | 6.0 | 21.0 | 0.00 | 0.01 | 0.01 | 40 | 1005.7 |
| 20260505202134 | 80 | 261 | 10.0 | 22.0 | 0.00 | 0.01 | 0.01 | 40 | 1005.9 |
| 20260505201631 | 80 | 255 | 7.0 | 22.0 | 0.00 | 0.01 | 0.01 | 40 | 1005.9 |
| 20260505201130 | 80 | 200 | 8.0 | 21.0 | 0.00 | 0.01 | 0.01 | 40 | 1005.9 |
| 20260505200631 | 80 | 171 | 9.0 | 15.0 | 0.00 | 0.01 | 0.01 | 40 | 1006.0 |
| 20260505200130 | 80 | 179 | 7.0 | 15.0 | 0.00 | 0.01 | 0.01 | 40 | 1006.0 |
| 20260505195629 | 80 | 273 | 9.0 | 17.0 | 0.00 | 0.01 | 0.01 | 39 | 1006.1 |
| 20260505195129 | 80 | 182 | 9.0 | 17.0 | 0.00 | 0.01 | 0.01 | 39 | 1006.0 |
| 20260505194627 | 80 | 193 | 7.0 | 16.0 | 0.00 | 0.01 | 0.01 | 39 | 1006.1 |
| 20260505194348 | 81 | 249 | 8.0 | 18.0 | 0.00 | 0.01 | 0.01 | 39 | 1006.1 |
| 20260505193625 | 81 | 196 | 7.0 | 18.0 | 0.00 | 0.01 | 0.01 | 38 | 1006.0 |
| 20260505193123 | 81 | 157 | 8.0 | 17.0 | 0.00 | 0.01 | 0.01 | 40 | 1006.2 |
| 20260505192622 | 80 | 254 | 9.0 | 19.0 | 0.00 | 0.01 | 0.01 | 39 | 1006.1 |
| 20260505192122 | 80 | 221 | 8.0 | 19.0 | 0.00 | 0.01 | 0.01 | 39 | 1006.3 |
| 20260505191623 | 80 | 254 | 4.0 | 18.0 | 0.00 | 0.01 | 0.01 | 40 | 1006.2 |
| 20260505191122 | 80 | 213 | 10.0 | 18.0 | 0.00 | 0.01 | 0.01 | 40 | 1006.5 |
| 20260505190621 | 79 | 209 | 7.0 | 21.0 | 0.00 | 0.01 | 0.01 | 39 | 1006.4 |
| 20260505190121 | 80 | 221 | 5.0 | 23.0 | 0.00 | 0.01 | 0.01 | 40 | 1006.4 |
| 20260505185624 | 79 | 241 | 13.0 | 23.0 | 0.00 | 0.01 | 0.01 | 39 | 1006.6 |
| 20260505185121 | 79 | 228 | 8.0 | 19.0 | 0.00 | 0.01 | 0.01 | 40 | 1006.7 |
| 20260505184619 | 80 | 212 | 9.0 | 21.0 | 0.00 | 0.01 | 0.01 | 39 | 1006.8 |
| 20260505184119 | 80 | 299 | 13.0 | 21.0 | 0.00 | 0.01 | 0.01 | 39 | 1006.8 |
| 20260505183619 | 80 | 177 | 6.0 | 17.0 | 0.00 | 0.01 | 0.01 | 40 | 1006.9 |
| 20260505183610 | 79 | 115 | 5.0 | 17.0 | 0.00 | 0.01 | 0.01 | 43 | 1007.0 |
| 20260505182619 | 79 | 164 | 10.0 | 17.0 | 0.00 | 0.01 | 0.01 | 41 | 1007.0 |
| 20260505182117 | 80 | 249 | 6.0 | 17.0 | 0.00 | 0.01 | 0.01 | 38 | 1006.9 |
| 20260505181615 | 80 | 227 | 6.0 | 17.0 | 0.00 | 0.01 | 0.01 | 40 | 1007.0 |
| 20260505181115 | 80 | 250 | 7.0 | 20.0 | 0.00 | 0.01 | 0.01 | 39 | 1007.0 |
| 20260505180613 | 80 | 257 | 8.0 | 20.0 | 0.00 | 0.01 | 0.01 | 38 | 1006.9 |
| 20260505180113 | 78 | 208 | 8.0 | 22.0 | 0.00 | 0.01 | 0.01 | 40 | 1007.2 |
| 20260505175835 | 80 | 158 | 12.0 | 22.0 | 0.00 | 0.01 | 0.01 | 39 | 1007.2 |
| 20260505175338 | 80 | 237 | 8.0 | 15.0 | 0.00 | 0.01 | 0.01 | 40 | 1007.0 |
| 20260505174612 | 79 | 236 | 7.0 | 18.0 | 0.00 | 0.01 | 0.01 | 40 | 1007.1 |
| 20260505174115 | 80 | 243 | 7.0 | 21.0 | 0.00 | 0.01 | 0.01 | 41 | 1007.3 |
| 20260505173839 | 79 | 254 | 9.0 | 21.0 | 0.00 | 0.01 | 0.01 | 38 | 1007.4 |
| 20260505173112 | 79 | 234 | 12.0 | 21.0 | 0.00 | 0.01 | 0.01 | 40 | 1007.3 |
| 20260505172612 | 79 | 253 | 11.0 | 21.0 | 0.00 | 0.01 | 0.01 | 40 | 1007.3 |
| 20260505172345 | 79 | 220 | 13.0 | 21.0 | 0.00 | 0.01 | 0.01 | 40 | 1007.3 |
| 20260505171612 | 80 | 161 | 8.0 | 19.0 | 0.00 | 0.01 | 0.01 | 39 | 1007.2 |
| 20260505171110 | 79 | 252 | 10.0 | 19.0 | 0.00 | 0.01 | 0.01 | 40 | 1007.3 |
| 20260505170611 | 79 | 259 | 7.0 | 17.0 | 0.00 | 0.01 | 0.01 | 41 | 1007.3 |
| 20260505170111 | 79 | 244 | 9.0 | 17.0 | 0.00 | 0.01 | 0.01 | 39 | 1007.7 |
| 20260505165613 | 78 | 259 | 9.0 | 23.0 | 0.00 | 0.01 | 0.01 | 42 | 1007.9 |
| 20260505165110 | 79 | 254 | 11.0 | 23.0 | 0.00 | 0.01 | 0.01 | 40 | 1007.9 |
| 20260505164610 | 79 | 257 | 11.0 | 21.0 | 0.00 | 0.01 | 0.01 | 41 | 1007.8 |
| 20260505164334 | 79 | 205 | 7.0 | 19.0 | 0.00 | 0.01 | 0.01 | 44 | 1007.9 |
| 20260505163609 | 78 | 254 | 13.0 | 19.0 | 0.00 | 0.01 | 0.01 | 41 | 1008.0 |
| 20260505163328 | 78 | 239 | 9.0 | 16.0 | 0.00 | 0.01 | 0.01 | 41 | 1008.1 |
| 20260505162611 | 79 | 261 | 5.0 | 21.0 | 0.00 | 0.01 | 0.01 | 42 | 1008.1 |
| 20260505162110 | 78 | 242 | 11.0 | 21.0 | 0.00 | 0.01 | 0.01 | 43 | 1008.1 |
| 20260505161847 | 78 | 232 | 9.0 | 18.0 | 0.00 | 0.01 | 0.01 | 43 | 1008.0 |
| 20260505161109 | 78 | 234 | 9.0 | 18.0 | 0.00 | 0.01 | 0.01 | 44 | 1008.1 |
| 20260505160610 | 77 | 180 | 8.0 | 18.0 | 0.00 | 0.01 | 0.01 | 45 | 1008.2 |
| 20260505160117 | 77 | 229 | 9.0 | 18.0 | 0.00 | 0.01 | 0.01 | 44 | 1008.2 |
| 20260505153103 | 76 | 209 | 8.0 | 14.0 | 0.00 | 0.01 | 0.01 | 47 | 1008.6 |
| 20260505152607 | 76 | 147 | 6.0 | 12.0 | 0.00 | 0.01 | 0.01 | 49 | 1008.6 |
| 20260505152106 | 75 | 207 | 6.0 | 13.0 | 0.00 | 0.01 | 0.01 | 50 | 1008.6 |
| 20260505151600 | 75 | 257 | 5.0 | 16.0 | 0.00 | 0.01 | 0.01 | 50 | 1008.5 |
| 20260505151058 | 74 | 246 | 9.0 | 16.0 | 0.00 | 0.01 | 0.01 | 52 | 1008.6 |
| 20260505150559 | 74 | 205 | 3.0 | 17.0 | 0.00 | 0.01 | 0.01 | 53 | 1008.6 |
| 20260505140545 | 70 | 254 | 3.0 | 10.0 | 0.00 | 0.01 | 0.01 | 59 | 1009.0 |
| 20260505130300 | 66 | 164 | 4.0 | 7.0 | 0.00 | 0.01 | 0.01 | 64 | 1009.4 |
| 20260505125024 | 65 | 211 | 4.0 | 8.0 | 0.00 | 0.01 | 0.01 | 66 | 1009.3 |
| 20260505124521 | 65 | 176 | 1.0 | 7.0 | 0.00 | 0.01 | 0.01 | 68 | 1009.3 |
| 20260505124017 | 64 | 260 | 1.0 | 7.0 | 0.00 | 0.01 | 0.01 | 68 | 1009.2 |
| 20260505123740 | 63 | 199 | 1.0 | 2.0 | 0.00 | 0.01 | 0.01 | 70 | 1009.3 |
| 20260505123013 | 62 | 229 | 0.0 | 3.0 | 0.00 | 0.01 | 0.01 | 69 | 1009.4 |
| 20260505122511 | 62 | 194 | 0.0 | 4.0 | 0.00 | 0.01 | 0.01 | 72 | 1009.3 |
| 20260505122011 | 61 | 199 | 1.0 | 4.0 | 0.00 | 0.01 | 0.01 | 72 | 1009.3 |
| 20260505121751 | 61 | 267 | 0.0 | 4.0 | 0.00 | 0.01 | 0.01 | 73 | 1009.4 |
| 20260505121007 | 61 | 267 | 0.0 | 4.0 | 0.00 | 0.01 | 0.01 | 71 | 1009.3 |
| 20260505120730 | 62 | 265 | 0.0 | 4.0 | 0.00 | 0.01 | 0.01 | 70 | 1009.2 |
| 20260505120006 | 62 | 295 | 2.0 | 4.0 | 0.00 | 0.01 | 0.01 | 72 | 1009.1 |
| 20260505115731 | 62 | 182 | 1.0 | 2.0 | 0.00 | 0.01 | 0.01 | 72 | 1009.2 |
| 20260505115235 | 61 | 5 | 0.0 | 2.0 | 0.00 | 0.01 | 0.01 | 77 | 1009.1 |
| 20260505114730 | 59 | 5 | 1.0 | 3.0 | 0.00 | 0.01 | 0.01 | 83 | 1009.0 |
| 20260505114005 | 58 | 121 | 0.0 | 3.0 | 0.00 | 0.01 | 0.01 | 86 | 1008.9 |
| 20260505113505 | 58 | 53 | 1.0 | 3.0 | 0.00 | 0.01 | 0.01 | 86 | 1008.9 |
| 20260505113002 | 57 | 27 | 0.0 | 3.0 | 0.00 | 0.01 | 0.01 | 87 | 1009.0 |
| 20260505112503 | 56 | 255 | 1.0 | 3.0 | 0.00 | 0.01 | 0.01 | 89 | 1009.1 |
| 20260505112003 | 55 | 264 | 2.0 | 3.0 | 0.00 | 0.01 | 0.01 | 91 | 1009.1 |
| 20260505111501 | 54 | 37 | 1.0 | 3.0 | 0.00 | 0.01 | 0.01 | 93 | 1009.0 |
| 20260505111004 | 52 | 53 | 1.0 | 3.0 | 0.00 | 0.01 | 0.01 | 94 | 1009.0 |
| 20260505110502 | 51 | 186 | 0.0 | 2.0 | 0.00 | 0.01 | 0.01 | 94 | 1008.9 |
| 20260505110239 | 51 | 136 | 0.0 | 2.0 | 0.00 | 0.01 | 0.01 | 94 | 1008.9 |
| 20260505101955 | 51 | 34 | 4.0 | 6.0 | 0.00 | 0.01 | 0.01 | 95 | 1008.4 |
| 20260505101457 | 49 | 30 | 0.0 | 3.0 | 0.00 | 0.01 | 0.01 | 95 | 1008.5 |
| 20260505100957 | 50 | 107 | 2.0 | 3.0 | 0.00 | 0.01 | 0.01 | 94 | 1008.6 |
| 20260505100455 | 50 | 62 | 1.0 | 2.0 | 0.00 | 0.01 | 0.01 | 95 | 1008.4 |
| 20260505095956 | 50 | 62 | 0.0 | 3.0 | 0.00 | 0.01 | 0.01 | 95 | 1008.3 |
| 20260505095459 | 50 | 69 | 0.0 | 3.0 | 0.00 | 0.01 | 0.01 | 94 | 1008.4 |
| 20260505094958 | 50 | 53 | 0.0 | 2.0 | 0.00 | 0.01 | 0.01 | 94 | 1008.3 |
| 20260505094457 | 50 | 164 | 0.0 | 4.0 | 0.00 | 0.01 | 0.01 | 94 | 1008.4 |
| 20260505093956 | 51 | 236 | 2.0 | 4.0 | 0.00 | 0.01 | 0.01 | 94 | 1008.3 |
| 20260505093455 | 51 | 32 | 0.0 | 0.0 | 0.00 | 0.01 | 0.01 | 94 | 1008.1 |
| 20260505092955 | 51 | 32 | 0.0 | 0.0 | 0.00 | 0.01 | 0.01 | 94 | 1008.2 |
| 20260505092457 | 51 | 32 | 0.0 | 0.0 | 0.00 | 0.01 | 0.01 | 94 | 1008.2 |
| 20260505091956 | 51 | 32 | 0.0 | 0.0 | 0.00 | 0.01 | 0.01 | 94 | 1008.4 |
| 20260505091455 | 51 | 32 | 0.0 | 0.0 | 0.00 | 0.01 | 0.01 | 94 | 1008.4 |
| 20260505090955 | 51 | 32 | 0.0 | 0.0 | 0.00 | 0.01 | 0.01 | 94 | 1008.3 |
| 20260505090500 | 52 | 32 | 0.0 | 0.0 | 0.00 | 0.01 | 0.01 | 94 | 1008.2 |
| 20260505085957 | 52 | 32 | 0.0 | 0.0 | 0.00 | 0.01 | 0.01 | 93 | 1008.2 |
| 20260505085455 | 52 | 32 | 0.0 | 0.0 | 0.00 | 0.01 | 0.01 | 93 | 1008.3 |
| 20260505084955 | 52 | 32 | 0.0 | 0.0 | 0.00 | 0.01 | 0.01 | 93 | 1008.2 |
| 20260505084455 | 52 | 32 | 0.0 | 0.0 | 0.00 | 0.01 | 0.01 | 93 | 1008.2 |
| 20260505083951 | 53 | 32 | 0.0 | 0.0 | 0.00 | 0.01 | 0.01 | 93 | 1008.2 |
| 20260505083451 | 53 | 32 | 0.0 | 0.0 | 0.00 | 0.01 | 0.01 | 93 | 1008.2 |
| 20260505083231 | 53 | 32 | 0.0 | 0.0 | 0.00 | 0.01 | 0.01 | 92 | 1008.1 |
| 20260505082721 | 53 | 32 | 0.0 | 0.0 | 0.00 | 0.01 | 0.01 | 92 | 1008.1 |
| 20260505082215 | 53 | 32 | 0.0 | 0.0 | 0.00 | 0.01 | 0.01 | 92 | 1008.2 |
| 20260505081453 | 53 | 32 | 0.0 | 0.0 | 0.00 | 0.01 | 0.01 | 92 | 1008.2 |
| 20260505080950 | 53 | 32 | 0.0 | 0.0 | 0.00 | 0.01 | 0.01 | 92 | 1008.2 |
| 20260505080452 | 54 | 32 | 0.0 | 0.0 | 0.00 | 0.01 | 0.01 | 92 | 1008.0 |
| 20260505075953 | 54 | 32 | 0.0 | 2.0 | 0.00 | 0.01 | 0.01 | 92 | 1008.1 |
| 20260505075447 | 55 | 32 | 0.0 | 2.0 | 0.00 | 0.01 | 0.01 | 92 | 1008.1 |
| 20260505074945 | 55 | 42 | 0.0 | 2.0 | 0.01 | 0.01 | 0.01 | 92 | 1008.1 |
| 20260505074450 | 55 | 126 | 0.0 | 5.0 | 0.01 | 0.01 | 0.01 | 92 | 1008.1 |
| 20260505073945 | 55 | 126 | 1.0 | 5.0 | 0.01 | 0.01 | 0.01 | 92 | 1008.2 |
| 20260505073442 | 55 | 23 | 2.0 | 3.0 | 0.01 | 0.01 | 0.01 | 92 | 1008.1 |
| 20260505072943 | 55 | 30 | 0.0 | 2.0 | 0.01 | 0.01 | 0.01 | 91 | 1008.1 |
| 20260505072441 | 56 | 30 | 0.0 | 2.0 | 0.01 | 0.01 | 0.01 | 91 | 1008.2 |
| 20260505071940 | 56 | 30 | 1.0 | 3.0 | 0.01 | 0.01 | 0.01 | 91 | 1008.0 |
| 20260505071709 | 56 | 30 | 0.0 | 3.0 | 0.01 | 0.01 | 0.01 | 90 | 1007.9 |
| 20260505070938 | 56 | 54 | 1.0 | 3.0 | 0.01 | 0.01 | 0.01 | 89 | 1008.0 |
| 20260505070431 | 56 | 0 | 1.0 | 4.0 | 0.01 | 0.01 | 0.01 | 89 | 1008.0 |
| 20260505065931 | 56 | 53 | 2.0 | 4.0 | 0.01 | 0.01 | 0.01 | 88 | 1008.0 |
| 20260505065432 | 56 | 26 | 0.0 | 3.0 | 0.01 | 0.01 | 0.01 | 87 | 1008.2 |
| 20260505064932 | 56 | 30 | 2.0 | 3.0 | 0.00 | 0.00 | 0.00 | 87 | 1008.2 |
| 20260505064433 | 56 | 72 | 0.0 | 2.0 | 0.00 | 0.00 | 0.00 | 87 | 1008.1 |
| 20260505063929 | 56 | 67 | 1.0 | 3.0 | 0.00 | 0.00 | 0.00 | 87 | 1008.1 |
| 20260505063427 | 56 | 40 | 2.0 | 3.0 | 0.00 | 0.00 | 0.00 | 88 | 1008.2 |
| 20260505063151 | 56 | 88 | 1.0 | 3.0 | 0.00 | 0.00 | 0.00 | 86 | 1008.1 |
| 20260505062426 | 57 | 22 | 0.0 | 3.0 | 0.00 | 0.00 | 0.00 | 85 | 1007.9 |
| 20260505061929 | 57 | 22 | 2.0 | 3.0 | 0.00 | 0.00 | 0.00 | 85 | 1007.9 |
| 20260505061426 | 57 | 23 | 1.0 | 3.0 | 0.00 | 0.00 | 0.00 | 86 | 1008.1 |
| 20260505060919 | 57 | 23 | 2.0 | 3.0 | 0.00 | 0.00 | 0.00 | 85 | 1008.0 |
| 20260505060649 | 57 | 12 | 1.0 | 3.0 | 0.00 | 0.00 | 0.00 | 83 | 1008.0 |
| 20260505060619 | 58 | 9 | 0.0 | 3.0 | 0.00 | 0.00 | 0.00 | 79 | 1008.1 |
| 20260505055410 | 59 | 30 | 1.0 | 3.0 | 0.00 | 0.00 | 0.00 | 73 | 1008.2 |
| 20260505055138 | 60 | 106 | 1.0 | 2.0 | 0.00 | 0.00 | 0.00 | 68 | 1008.1 |
| 20260505054408 | 60 | 187 | 1.0 | 4.0 | 0.00 | 0.00 | 0.00 | 68 | 1008.2 |
| 20260505053909 | 60 | 155 | 1.0 | 4.0 | 0.00 | 0.00 | 0.00 | 67 | 1008.2 |
| 20260505053407 | 61 | 278 | 0.0 | 2.0 | 0.00 | 0.00 | 0.00 | 65 | 1008.1 |
| 20260505052913 | 60 | 248 | 0.0 | 3.0 | 0.00 | 0.00 | 0.00 | 66 | 1008.2 |
| 20260505052357 | 59 | 17 | 1.0 | 3.0 | 0.00 | 0.00 | 0.00 | 68 | 1008.1 |
| 20260505051904 | 59 | 297 | 2.0 | 3.0 | 0.00 | 0.00 | 0.00 | 68 | 1008.2 |
| 20260505051357 | 58 | 39 | 0.0 | 3.0 | 0.00 | 0.00 | 0.00 | 70 | 1008.2 |
| 20260505050859 | 59 | 12 | 0.0 | 4.0 | 0.00 | 0.00 | 0.00 | 68 | 1008.2 |
| 20260505050350 | 58 | 18 | 2.0 | 4.0 | 0.00 | 0.00 | 0.00 | 68 | 1008.1 |
| 20260505041600 | 59 | 37 | 0.0 | 4.0 | 0.00 | 0.00 | 0.00 | 66 | 1007.9 |
| 20260505040822 | 59 | 37 | 1.0 | 4.0 | 0.00 | 0.00 | 0.00 | 65 | 1007.8 |
| 20260505040323 | 58 | 29 | 2.0 | 4.0 | 0.00 | 0.00 | 0.00 | 67 | 1007.9 |
| 20260505035819 | 58 | 11 | 1.0 | 4.0 | 0.00 | 0.00 | 0.00 | 68 | 1007.7 |
| 20260505035312 | 58 | 31 | 1.0 | 2.0 | 0.00 | 0.00 | 0.00 | 67 | 1007.8 |
| 20260505034809 | 58 | 5 | 0.0 | 3.0 | 0.00 | 0.00 | 0.00 | 67 | 1007.7 |
| 20260505034300 | 58 | 5 | 2.0 | 3.0 | 0.00 | 0.00 | 0.00 | 67 | 1007.8 |
| 20260505034031 | 58 | 83 | 1.0 | 3.0 | 0.00 | 0.00 | 0.00 | 66 | 1007.7 |
| 20260505033256 | 59 | 45 | 2.0 | 3.0 | 0.00 | 0.00 | 0.00 | 64 | 1007.7 |
| 20260505032745 | 59 | 307 | 1.0 | 4.0 | 0.00 | 0.00 | 0.00 | 64 | 1007.9 |
| 20260505032244 | 59 | 346 | 1.0 | 4.0 | 0.00 | 0.00 | 0.00 | 64 | 1007.9 |
| 20260505032010 | 58 | 317 | 0.0 | 3.0 | 0.00 | 0.00 | 0.00 | 65 | 1007.9 |
| 20260505031516 | 59 | 20 | 1.0 | 2.0 | 0.00 | 0.00 | 0.00 | 64 | 1007.9 |
| 20260505030733 | 59 | 24 | 1.0 | 2.0 | 0.00 | 0.00 | 0.00 | 64 | 1007.8 |
| 20260505030230 | 59 | 15 | 1.0 | 3.0 | 0.00 | 0.00 | 0.00 | 62 | 1007.7 |
| 20260505025729 | 60 | 13 | 2.0 | 3.0 | 0.00 | 0.00 | 0.00 | 62 | 1007.7 |
| 20260505025227 | 60 | 34 | 0.0 | 4.0 | 0.00 | 0.00 | 0.00 | 61 | 1007.7 |
| 20260505024729 | 60 | 123 | 2.0 | 4.0 | 0.00 | 0.00 | 0.00 | 62 | 1007.8 |
| 20260505024223 | 59 | 93 | 1.0 | 2.0 | 0.00 | 0.00 | 0.00 | 64 | 1007.9 |
| 20260505023712 | 60 | 94 | 0.0 | 2.0 | 0.00 | 0.00 | 0.00 | 60 | 1007.8 |
| 20260505023210 | 60 | 352 | 0.0 | 2.0 | 0.00 | 0.00 | 0.00 | 61 | 1007.9 |
| 20260505022711 | 61 | 352 | 0.0 | 3.0 | 0.00 | 0.00 | 0.00 | 60 | 1007.8 |
| 20260505022205 | 61 | 334 | 1.0 | 3.0 | 0.00 | 0.00 | 0.00 | 59 | 1007.8 |
| 20260505021700 | 61 | 5 | 0.0 | 3.0 | 0.00 | 0.00 | 0.00 | 59 | 1007.9 |
| 20260505021200 | 61 | 355 | 1.0 | 3.0 | 0.00 | 0.00 | 0.00 | 59 | 1007.9 |
| 20260505020658 | 61 | 355 | 1.0 | 3.0 | 0.00 | 0.00 | 0.00 | 59 | 1008.0 |
| 20260505020159 | 61 | 355 | 1.0 | 3.0 | 0.00 | 0.00 | 0.00 | 58 | 1008.1 |
| 20260505015922 | 62 | 327 | 1.0 | 2.0 | 0.00 | 0.00 | 0.00 | 58 | 1008.0 |
| 20260505015150 | 62 | 344 | 0.0 | 4.0 | 0.00 | 0.00 | 0.00 | 56 | 1007.9 |
| 20260505014650 | 63 | 202 | 0.0 | 4.0 | 0.00 | 0.00 | 0.00 | 54 | 1007.9 |
| 20260505014424 | 64 | 184 | 1.0 | 4.0 | 0.00 | 0.00 | 0.00 | 54 | 1007.9 |
| 20260505013650 | 64 | 137 | 2.0 | 5.0 | 0.00 | 0.00 | 0.00 | 54 | 1008.1 |
| 20260505013142 | 64 | 167 | 0.0 | 5.0 | 0.00 | 0.00 | 0.00 | 54 | 1008.0 |
| 20260505012915 | 64 | 238 | 1.0 | 5.0 | 0.00 | 0.00 | 0.00 | 54 | 1008.0 |
| 20260505012139 | 64 | 255 | 0.0 | 5.0 | 0.00 | 0.00 | 0.00 | 54 | 1008.0 |
| 20260505011638 | 65 | 181 | 1.0 | 5.0 | 0.00 | 0.00 | 0.00 | 52 | 1007.9 |
| 20260505011136 | 65 | 166 | 1.0 | 7.0 | 0.00 | 0.00 | 0.00 | 52 | 1007.9 |
| 20260505010622 | 65 | 237 | 2.0 | 6.0 | 0.00 | 0.00 | 0.00 | 52 | 1007.8 |
| 20260505010121 | 65 | 126 | 3.0 | 8.0 | 0.00 | 0.00 | 0.00 | 53 | 1007.7 |
| 20260505005623 | 64 | 271 | 1.0 | 8.0 | 0.00 | 0.00 | 0.00 | 55 | 1007.4 |
| 20260505005119 | 62 | 15 | 2.0 | 6.0 | 0.00 | 0.00 | 0.00 | 58 | 1007.4 |
| 20260505004613 | 62 | 39 | 2.0 | 3.0 | 0.00 | 0.00 | 0.00 | 58 | 1007.3 |
| 20260505004555 | 63 | 121 | 0.0 | 3.0 | 0.00 | 0.00 | 0.00 | 57 | 1007.3 |
| 20260505003611 | 64 | 0 | 1.0 | 3.0 | 0.00 | 0.00 | 0.00 | 55 | 1007.2 |
| 20260505003109 | 64 | 300 | 1.0 | 2.0 | 0.00 | 0.00 | 0.00 | 54 | 1007.1 |
| 20260505002609 | 66 | 244 | 0.0 | 3.0 | 0.00 | 0.00 | 0.00 | 52 | 1007.1 |
| 20260505002109 | 67 | 216 | 0.0 | 4.0 | 0.00 | 0.00 | 0.00 | 48 | 1007.0 |
| 20260505001607 | 68 | 205 | 2.0 | 6.0 | 0.00 | 0.00 | 0.00 | 48 | 1007.0 |
| 20260505001107 | 68 | 253 | 1.0 | 7.0 | 0.00 | 0.00 | 0.00 | 47 | 1007.0 |
| 20260505000600 | 68 | 237 | 2.0 | 7.0 | 0.00 | 0.00 | 0.00 | 47 | 1006.9 |
| 20260505000328 | 68 | 279 | 2.0 | 8.0 | 0.00 | 0.00 | 0.00 | 47 | 1006.9 |
| 20260504235601 | 69 | 190 | 2.0 | 8.0 | 0.00 | 0.00 | 0.00 | 46 | 1006.9 |
| 20260504235045 | 69 | 211 | 2.0 | 9.0 | 0.00 | 0.00 | 0.00 | 46 | 1006.8 |
| 20260504234546 | 69 | 192 | 3.0 | 9.0 | 0.00 | 0.00 | 0.00 | 45 | 1006.7 |
| 20260504234046 | 69 | 198 | 2.0 | 8.0 | 0.00 | 0.00 | 0.00 | 45 | 1006.7 |
| 20260504233541 | 69 | 175 | 5.0 | 9.0 | 0.00 | 0.00 | 0.00 | 45 | 1006.7 |
| 20260504233041 | 69 | 227 | 4.0 | 10.0 | 0.00 | 0.00 | 0.00 | 45 | 1006.6 |
| 20260504232538 | 70 | 229 | 4.0 | 15.0 | 0.00 | 0.00 | 0.00 | 45 | 1006.5 |
| 20260504232037 | 70 | 248 | 6.0 | 15.0 | 0.00 | 0.00 | 0.00 | 44 | 1006.5 |
| 20260504231538 | 70 | 224 | 3.0 | 8.0 | 0.00 | 0.00 | 0.00 | 44 | 1006.5 |
| 20260504231039 | 70 | 227 | 3.0 | 8.0 | 0.00 | 0.00 | 0.00 | 44 | 1006.6 |
| 20260504231022 | 70 | 227 | 1.0 | 11.0 | 0.00 | 0.00 | 0.00 | 44 | 1006.6 |